Weather observations for the past three days for
Medicine Lodge, Medicine Lodge
Imperial (Metric)
Date Time (cdt) Wind (mph) Vis. (mi.) Weather Sky Cond. Temperature (ºF) Relative Humidity Wind Chill (°F) Heat Index (°F) Pressure Precipitation (in)
Air Dwpt 6 hour altimeter (in) sea level (mb) 1 hr 3 hr 6 hr
Max. Min.
17 18:56 S 24 G 40 0.00 Breezy NULL 93 66 97 93 41% 96 29.64 1001.7
17 17:56 S 20 G 43 0.00 NULL NULL 93.9 66 40% 97 29.63 1001.3
17 16:56 SE 21 G 36 0.00 Breezy NULL 96.1 66.9 39% 100 29.63 1001.3
17 15:56 S 20 G 43 0.00 NULL NULL 96.1 66.9 39% 100 29.65 1001.8
17 14:56 S 20 G 40 0.00 NULL NULL 95 66 39% 98 29.67 1002.5
17 13:56 S 25 G 41 0.00 Breezy NULL 96.1 66 37% 100 29.68 1002.8
17 12:56 S 17 G 35 0.00 NULL NULL 93.9 68 95 75 43% 98 29.71 1003.7
17 11:56 S 18 G 35 0.00 NULL NULL 91.9 70 49% 98 29.72 1004.3
17 10:56 S 18 G 29 0.00 NULL NULL 88 69.1 54% 92 29.74 1004.9
17 09:56 S 20 G 35 0.00 NULL NULL 84 68 59% 87 29.74 1005.1
17 08:56 S 20 G 30 0.00 NULL NULL 81 66.9 62% 83 29.75 1005.4
17 07:56 S 13 G 20 0.00 NULL NULL 78.1 66 67% 80 29.76 1005.5
17 06:56 SE 8 G 16 0.00 NULL NULL 75 64.9 82.9 75 71% 77 29.76 1005.5
17 05:56 SE 9 0.00 NULL NULL 75 64.9 71% 77 29.75 1005.2
17 04:56 S 9 0.00 NULL NULL 75.9 64.9 69% 78 29.75 1005.1
17 03:56 S 12 0.00 NULL NULL 78.1 64.9 64% 80 29.75 1005.4
17 02:56 S 14 0.00 NULL NULL 80.1 64.9 60% 82 29.78 1006.1
17 01:56 S 13 G 22 0.00 NULL NULL 81 64.9 58% 83 29.79 1006.6
17 00:56 S 12 G 23 0.00 NULL NULL 82.9 66 97 82.9 57% 85 29.79 1006.4
16 23:56 S 13 G 25 0.00 NULL NULL 84 66.9 57% 87 29.79 1006.5
16 22:56 S 14 G 24 0.00 NULL NULL 86 68 55% 89 29.78 1006.3
16 21:56 S 13 G 28 0.00 NULL NULL 88 68 52% 92 29.74 1005.1
16 20:56 S 15 G 28 0.00 NULL NULL 90 68 48% 94 29.71 1004.0
16 19:56 S 18 G 29 0.00 NULL NULL 95 66.9 40% 99 29.69 1003.3
16 18:56 S 21 G 32 0.00 Breezy NULL 97 64.9 99 93 35% 100 29.68 1002.8
16 17:56 S 16 G 29 0.00 NULL NULL 98.1 68 38% 103 29.68 1002.9
16 16:56 S 22 G 36 0.00 Breezy NULL 98.1 66.9 36% 103 29.69 1003.1
16 15:56 S 17 G 29 0.00 NULL NULL 97 70 42% 104 29.7 1003.7
16 14:56 S 17 G 28 0.00 NULL NULL 97 71.1 43% 105 29.72 1004.1
16 13:56 SE 17 G 28 0.00 NULL NULL 95 71.1 46% 102 29.74 1004.9
16 12:56 S 15 G 24 0.00 NULL NULL 93.9 69.1 95 73.9 44% 99 29.77 1005.8
16 11:56 S 12 G 17 0.00 NULL NULL 91 70 50% 97 29.78 1006.2
16 10:56 S 15 G 26 0.00 NULL NULL 87.1 69.1 55% 91 29.79 1006.8
16 09:56 S 15 G 25 0.00 NULL NULL 84.9 69.1 59% 89 29.81 1007.2
16 08:56 S 14 G 23 0.00 NULL NULL 81 66 61% 83 29.81 1007.5
16 07:56 SE 9 0.00 NULL NULL 77 66 69% 79 29.8 1007.0
16 06:56 SE 6 0.00 NULL NULL 73.9 66 81 73.9 76% 29.8 1007.1
16 05:56 SE 7 0.00 NULL NULL 75 66 74% 76 29.8 1007.1
16 04:56 SE 7 0.00 NULL NULL 75.9 66 72% 77 29.79 1007.0
16 03:56 S 10 0.00 NULL NULL 78.1 66 67% 80 29.78 1006.7
16 02:56 S 12 0.00 NULL NULL 79 66 65% 81 29.78 1006.5
16 01:56 S 15 G 29 0.00 NULL NULL 81 64.9 58% 83 29.78 1006.1
16 00:56 S 17 G 24 0.00 NULL NULL 81 64.9 90 81 58% 83 29.77 1006.1
15 23:56 S 12 0.00 NULL NULL 82.9 64.9 55% 85 29.81 1007.4
15 22:56 S 13 G 21 0.00 NULL NULL 84.9 63 48% 86 29.79 1006.8
15 21:56 S 13 G 24 0.00 NULL NULL 87.1 62.1 43% 88 29.76 1005.8
15 20:56 S 10 G 23 0.00 NULL NULL 89.1 62.1 41% 89 29.75 1005.3
15 19:56 S 10 0.00 NULL NULL 90 63 41% 91 29.74 1005.1
15 18:56 E 7 0.00 NULL NULL 88 69.1 96.1 82 54% 92 29.75 1005.5
15 17:56 E 8 0.00 NULL NULL 87.1 68 53% 91 29.77 1006.5
15 16:56 NE 7 0.00 NULL NULL 86 64.9 49% 88 29.79 1007.1
15 15:56 N 9 0.00 NULL NULL 84 68 59% 87 29.82 1008.2
15 14:56 S 20 G 30 0.00 NULL NULL 93 62.1 36% 94 29.83 1008.1
15 13:56 SW 17 G 29 0.00 NULL NULL 93 64 38% 95 29.83 1008.3
15 12:56 S 15 G 28 0.00 NULL NULL 93 66.9 93 71.1 42% 97 29.85 1008.8
15 11:56 S 13 G 22 0.00 NULL NULL 90 68 48% 94 29.88 1009.7
15 10:56 SW 15 G 21 0.00 NULL NULL 89.1 66.9 48% 92 29.89 1010.2
15 09:56 S 10 0.00 NULL NULL 84.9 66.9 55% 88 29.92 1011.0
15 08:56 SE 7 0.00 NULL NULL 81 64.9 58% 83 29.92 1011.1
15 07:56 SE 5 0.00 NULL NULL 73 64 74% 29.93 1011.7
15 06:56 SE 6 0.00 NULL NULL 71.1 62.1 78.1 66.9 73% 29.93 1011.4
15 05:56 Calm 0.00 NULL NULL 69.1 63 81% 29.92 1011.3
15 04:56 S 5 0.00 NULL NULL 72 63 73% 29.92 1011.1
15 03:56 SE 3 0.00 NULL NULL 72 63 73% 29.92 1011.3
15 02:56 S 3 0.00 NULL NULL 73.9 64 71% 29.91 1010.9
15 01:56 Calm 0.00 NULL NULL 75.9 62.1 62% 78 29.93 1011.5
15 00:56 NW 5 0.00 NULL NULL 78.1 61 96.1 78.1 56% 80 29.94 1011.8
14 23:56 W 8 0.00 NULL NULL 82 69.1 65% 85 29.97 1012.7
14 22:56 E 5 0.00 NULL NULL 84 66.9 57% 87 29.94 1011.7
14 21:56 SE 7 0.00 NULL NULL 88 62.1 42% 88 29.91 1010.7
14 20:56 SE 5 0.00 NULL NULL 89.1 63 42% 90 29.91 1010.8
14 19:56 SE 7 0.00 NULL NULL 93 62.1 36% 94 29.89 1010.2
Date Time (cdt) Wind (mph) Vis. (mi.) Weather Sky Cond. Air Dwpt Max. Min. Relative Humidity Wind Chill (°F) Heat Index (°F) altimeter (in) sea level (mb) 1 hr 3 hr 6 hr
6 hour
Temperature (ºF) Pressure Precipitation (in)